Flag for Brazil Weather past 2 weeks in Belo Horizonte, Minas Gerais, Brazil

Now
70 °F

Clear.


Feels Like: 70 °F
Forecast: 64 / 79 °F
Wind: 9 mph from Southeast

Location: Belo Horizonte Airport

Current Time: Aug 28, 2014 at 11:08:19 PM

Latest Report: Aug 28, 2014 at 10:00 PM


Visibility: 10 mi

Pressure: 30.09 "Hg

Humidity: 64%

Dew point: 57 °F

Location of Belo HorizonteLocation

Historic Weather in Belo Horizonte — Graph

°F

Belo Horizonte temperature yesterday

Maximum temperature yesterday: 90 °F (at 2:00 PM)
Minimum temperature yesterday: 61 °F (at 6:00 AM)
Average temperature yesterday: 75 °F

Past Weeks' High & Low Weather Summary

 TemperatureHumidityPressure
High90 °F (Aug 27, 2:00 PM)94% (Aug 18, 2:00 AM)30.39 "Hg (Aug 18, 2:00 AM)
Low54 °F (Aug 15, 5:00 AM)13% (Aug 23, 5:00 PM)29.98 "Hg (Aug 27, 3:00 PM)
Average69 °F53%30.18 "Hg
* Reported Aug 13 10:00 PM — Aug 28 10:00 PM, Belo Horizonte, Weather by CustomWeather, © 2014

Note: Actual official high and low records may vary slightly from our data, if they occured in-between our weather recording intervals... More about our weather records

Advertising

Belo Horizonte weather history for previous 24 hours

 ConditionsComfort  
Time TempWeatherWind HumidityBarometerVisibility
10:00 PM
Aug 28
70 °FClear.9 mph64%30.09 "Hg10 mi
9:00 PM73 °FClear.15 mph53%30.09 "Hg10 mi
8:00 PM75 °FClear.8 mph39%30.07 "Hg10 mi
7:00 PM81 °FClear.3 mph30%30.04 "Hg10 mi
6:00 PM82 °FClear.6 mph28%30.01 "Hg10 mi
5:00 PM86 °FPassing clouds.8 mph24%30.01 "HgN/A
4:00 PM88 °FPassing clouds.9 mph22%29.98 "HgN/A
3:00 PM88 °FScattered clouds.10 mph25%30.01 "HgN/A
2:00 PM88 °FPassing clouds.8 mph24%30.01 "HgN/A
1:00 PM88 °FSunny.6 mph25%30.07 "Hg10 mi
12:00 PM84 °FSunny.5 mph31%30.09 "Hg10 mi
11:00 AM81 °FSunny.3 mph37%30.09 "Hg10 mi
10:00 AM77 °FSunny.7 mph44%30.12 "Hg10 mi
9:00 AM72 °FSunny.3 mph57%30.12 "Hg10 mi
8:00 AM68 °FSunny.8 mph60%30.09 "Hg10 mi
7:00 AM68 °FSunny.9 mph60%30.09 "Hg10 mi
6:00 AM64 °FClear.7 mph68%30.07 "Hg10 mi
5:00 AM66 °FClear.9 mph68%30.07 "Hg10 mi
4:00 AM66 °FClear.7 mph64%30.04 "Hg10 mi
3:00 AM68 °FClear.5 mph60%30.04 "Hg10 mi
2:00 AM68 °FClear.8 mph56%30.04 "Hg10 mi
1:00 AM70 °FClear.5 mph50%30.07 "Hg10 mi
12:00 AM70 °FClear.7 mph50%30.07 "Hg5 mi
11:00 PM
Aug 27
75 °FClear.8 mph34%30.07 "Hg10 mi
Weather by CustomWeather, © 2014

See weather overviewHow to use our weather pages